This is the latest recevied weather packets stored in our database for station/object KC5TIL-3. If no packets are shown the sender has not sent any weather packets the latest 10 day(s).
| Time | Temp. | Humidity | Pressure | Rain* | Wind** | Luminosity | Snow |
|---|---|---|---|---|---|---|---|
| 1777900157 | 18.33° C | 43% | 1010.8 hPa | 0 mm | 4.92 m/s, 194° | - | - |
| 1777899859 | 18.33° C | 44% | 1010.8 hPa | 0 mm | 4.47 m/s, 229° | - | - |
| 1777899561 | 17.78° C | 44% | 1010.8 hPa | 0 mm | 4.47 m/s, 207° | - | - |
| 1777899259 | 17.78° C | 44% | 1010.8 hPa | 0 mm | 4.92 m/s, 151° | - | - |
| 1777898658 | 17.78° C | 46% | 1010.8 hPa | 0 mm | 3.13 m/s, 124° | - | - |
| 1777898357 | 17.78° C | 46% | 1010.8 hPa | 0 mm | 3.58 m/s, 193° | - | - |
| 1777898059 | 17.22° C | 46% | 1010.8 hPa | 0 mm | 3.58 m/s, 237° | - | - |
| 1777897761 | 17.22° C | 47% | 1010.8 hPa | 0 mm | 4.92 m/s, 158° | - | - |
| 1777897460 | 17.22° C | 47% | 1010.8 hPa | 0 mm | 4.47 m/s, 191° | - | - |
| 1777897161 | 17.22° C | 47% | 1009.8 hPa | 0 mm | 3.13 m/s, 200° | - | - |
| 1777896859 | 17.22° C | 47% | 1009.8 hPa | 0 mm | 4.02 m/s, 225° | - | - |
| 1777896557 | 17.22° C | 47% | 1009.8 hPa | 0 mm | 4.92 m/s, 228° | - | - |
| 1777896259 | 17.22° C | 47% | 1009.8 hPa | 0 mm | 4.92 m/s, 227° | - | - |
| 1777895961 | 17.22° C | 46% | 1009.8 hPa | 0 mm | 3.58 m/s, 212° | - | - |
| 1777895660 | 17.22° C | 46% | 1009.8 hPa | 0 mm | 4.02 m/s, 219° | - | - |
| 1777895362 | 17.22° C | 46% | 1009.8 hPa | 0 mm | 3.58 m/s, 217° | - | - |
| 1777895064 | 17.22° C | 46% | 1009.8 hPa | 0 mm | 4.47 m/s, 231° | - | - |
| 1777894758 | 17.22° C | 45% | 1009.8 hPa | 0 mm | 5.36 m/s, 243° | - | - |
| 1777894161 | 17.22° C | 45% | 1009.8 hPa | 0 mm | 5.36 m/s, 218° | - | - |
| 1777893860 | 17.22° C | 45% | 1009.8 hPa | 0 mm | 3.13 m/s, 198° | - | - |
| 1777893562 | 17.22° C | 44% | 1009.8 hPa | 0 mm | 4.47 m/s, 212° | - | - |
| 1777893264 | 17.22° C | 44% | 1009.8 hPa | 0 mm | 3.58 m/s, 195° | - | - |
| 1777892962 | 17.22° C | 44% | 1009.8 hPa | 0 mm | 4.47 m/s, 200° | - | - |
| 1777892660 | 17.22° C | 43% | 1010.8 hPa | 0 mm | 3.13 m/s, 220° | - | - |
| 1777892361 | 17.22° C | 43% | 1010.8 hPa | 0 mm | 3.58 m/s, 209° | - | - |
* Rain latest hour (hover to see other rain measurements)
** Current wind speed in m/s (hover to see current wind gust speed)